DECAYED
Showing default

BRIO, 43813 (Decayed)

Orbit data source: Space-Track

BRIO, 43813 was an American payload satellite in LEO that was launched on Mon, 03 Dec 2018 UTC via an FALCON 9 launch vehicle from the Air Force Western Test Range (AFWTR). Payload-class satellites include a variety of spacecraft equipped with specific instruments for various scientific and technological missions. These include communications satellites like Starlink; space stations such as the ISS; scientific satellites like the Hubble; Earth observation satellites from companies like Planet Labs, Umbra, and HawkEye 360; GPS; miniature CubeSats for education and research; and military/defense satellites.

Not visible in the next 10 days
Identifier
43813, 2018-099BH
Orbit
Decayed
Country
Flag of USUS
Related business
Manufacturer
SpaceQuest
Mission
Decayed Commercial Technology
Bus & Motor
CUBESAT 3U, Unknown motor
Mass
5 kg wet, 5 kg dry
Launch date (UTC)
2018-12-03 (8 years ago)
Launch vehicle
FALCON 9
Launch site
Air Force Western Test Range (AFWTR)
Object type
Payload
Rocket body
Debris
Shape & HBR
Box, 0.2 m
Radar Cross Section
0.035 m², Medium (>0.1 m² and < 1m²)

Expand to show TLE details & history
Last TLE update: 1 year ago

TLE from 1 year ago
0 BRIO
1 43813U 18099BH  25191.37859399  .13516868  26109-5  79058-3 0  9990
2 43813  97.4926 278.1281 0016455 271.5932  88.3482 16.40313559362468
Epoch: 2025-07-10T09:05Z
TLE epoch observation values (Epoch: 2025-07-10T09:05:10.520Z)
Latitude
-0.00008°
Longitude
-146.71145°
Altitude
167.925 km
Speed
7.806 km/s
True Right ascension
18h 32m 30s
True Declination
0° 00' 00"
Sunlit
Object was in full shadow at epoch
Visualization orbit readout
Latitude
Unknown
Longitude
Unknown
Altitude
Unknown
Speed
Unknown
Apparent Right ascension
Unknown
Apparent Declination
Unknown
Sunlit
N/A
Visualization observer readout
Local Sidereal Time
00:28:45
Azimuth
Unknown
Elevation
Unknown
Doppler factor
Unknown
Orbital elements
Apogee altitude
172.541 km
Perigee altitude
151.018 km
Semi-major axis
6,539.917 km
Eccentricity
0.00165
Inclination
97.4926°
RAAN
278.1281°
Arg. of periapsis
271.5932°
True anomaly
88.53669°
Mean anomaly
88.3482°
Eccentric anomaly
88.44245°
Mean motion
4.10379 °/min
Orbital period
87.72 mins
BSTAR
0.00079058
Loading maneuver chart data...
Computing Atmospheric mass density...
Loading historical data...
Loading historical data...
Loading historical data...
Loading historical data...
Loading historical data...
Loading historical data...
Loading historical data...

Documentation

Showing up to 5 results
|